COSMOS 1275 DEB

基本信息
目录编号:
15780
目录名称:
COSMOS 1275 DEB
国际标识:
1981-053KE
轨道中心:
EARTH
物体状态:
在轨
发射日期:
1981-06-04 UTC
轨道信息
数据来源: 国际轨道数据
星历时间: 2026-09-12T03:33:55+0800
半长轴: 7283.257km
偏心率: 0.0049405
轨道倾角: 82.817°
近地点辐角: 255.223°
升交点赤经: 183.065°
平近点角: 162.270°
近地点: 869.137km
远地点: 941.103km
周期: 103.098分钟
每日圈数: 13.96736
详细信息
发射场:
PKMTR
轨道高度:
LEO
数据来源:
AOE Integration Group
参考系:
TEME
时间系统:
UTC
历元类型:
SGP4
2D轨道图
3D轨道图
轨道高度分析图
轨道倾角分析图
轨道综合分析图
查看轨道综合分析图